[[{"header":{"parameterUnit":"m.s-1","parameterCategory":1,"la1":30.2991,"la2":30.254,"lo1":-89.0895,"lo2":-89.0444,"dy":0.0017,"dx":0.0017,"nx":28,"ny":28,"refTime":"2023-09-16T03:00:00:Z","depth":0,"parameterNumber":2,"parameterNumberName":"U-component_of_WINDS"},"data":[0,0,0,0,0,0,0,0,0,0,0,0,0,0,0,0,0,0,0,0,0,0,0,0,0,0,0,0,0,0,0,0,0,0,0,0,0,0,0,0,0,0,0,0,0,0,0,0,0,0,0,0,0,0,0,0,0,0,-0.43,-0.43,0,-0.4253,-0.4253,-0.4252,-0.4224,-0.4223,-0.4223,-0.4223,-0.4176,-0.4174,-0.4173,0,0,0,0,0,0,0,0,0,0,0,0,0,-0.4367,-0.4366,-0.43,-0.43,-0.4299,-0.4253,-0.4253,-0.4252,-0.4224,-0.4223,-0.4223,-0.4223,-0.4176,-0.4175,-0.4173,0,0,0,0,0,0,0,0,0,0,0,0,0,-0.4331,-0.4366,-0.43,-0.4279,-0.4277,-0.4253,-0.4253,-0.4252,-0.4224,-0.4223,-0.4223,-0.4223,-0.4176,-0.4175,-0.4173,-0.4167,0,0,-0.4168,-0.4167,0,0,0,0,0,0,0,0,-0.4333,-0.4328,-0.4283,-0.4281,-0.4278,-0.4244,-0.4259,-0.4223,-0.4224,-0.4244,-0.4223,-0.4223,-0.4199,-0.4195,-0.4187,-0.4164,-0.4162,-0.4168,-0.4167,-0.4166,-0.4165,0,0,0,0,0,0,0,-0.4335,-0.433,-0.4282,-0.4282,-0.4279,-0.4273,-0.4267,-0.4252,-0.4223,-0.4242,-0.424,-0.4235,-0.4197,-0.4188,-0.4185,-0.4162,-0.4168,-0.4166,-0.4165,-0.4164,-0.4132,-0.4133,0,0,0,0,0,0,-0.4341,-0.4333,-0.4283,-0.428,-0.4306,-0.4272,-0.4266,-0.4255,-0.4223,-0.4218,-0.4235,-0.4234,-0.4191,-0.4187,-0.4184,-0.4174,-0.4166,-0.4164,-0.4163,-0.4132,-0.4132,-0.4133,0,0,0,0,0,0,-0.4343,-0.4337,-0.4285,-0.4306,-0.4299,-0.4271,-0.4259,-0.4254,-0.4245,-0.4218,-0.4212,-0.4231,-0.4191,-0.4186,-0.4171,-0.4172,-0.4164,-0.4162,-0.4132,-0.4132,-0.4133,-0.4155,0,0,0,0,0,0,-0.4345,-0.4338,-0.4335,-0.4306,-0.4298,-0.4273,-0.4259,-0.4254,-0.4243,-0.424,-0.4213,-0.4208,-0.419,-0.4174,-0.4169,-0.4169,-0.4161,-0.4132,-0.4132,-0.4132,-0.4154,-0.4156,-0.4158,0,0,0,0,0,-0.4347,-0.4343,-0.4335,-0.4329,-0.4293,-0.4273,-0.4268,-0.4248,-0.4243,-0.424,-0.4222,-0.4209,-0.4173,-0.4173,-0.4167,-0.4167,-0.4132,-0.4132,-0.4132,-0.4153,-0.4155,-0.4157,0,0,0,0,0,0,-0.4373,-0.4339,-0.4329,-0.4315,-0.4297,-0.4268,-0.4264,-0.4251,-0.4235,-0.4233,-0.4209,-0.4203,-0.4191,-0.4177,-0.4178,-0.4159,-0.4151,-0.415,-0.4168,-0.417,-0.4172,-0.4175,-0.4159,0,0,0,0,0,-0.4377,-0.4363,-0.4334,-0.4325,-0.4316,-0.4292,-0.4282,-0.4268,-0.4249,-0.4241,-0.4222,-0.4204,-0.4188,-0.4179,-0.4163,-0.4152,-0.4146,-0.4149,-0.4151,-0.4153,-0.4152,-0.4146,-0.4147,-0.4134,-0.4134,-0.4134,0,0,-0.4385,-0.4365,-0.4357,-0.4329,-0.4314,-0.43,-0.4285,-0.4272,-0.4262,-0.4239,-0.4224,-0.4209,-0.4188,-0.4175,-0.4168,-0.4163,-0.4155,-0.4153,-0.4155,-0.4153,-0.4146,-0.4148,-0.4149,-0.4134,-0.4134,-0.4134,0,0,-0.4392,-0.4376,-0.4366,-0.4351,-0.4327,-0.4311,-0.4309,-0.4282,-0.4272,-0.4256,-0.4239,-0.4227,-0.4201,-0.4186,-0.4175,-0.4178,-0.4165,-0.4174,-0.4183,-0.4177,-0.4178,-0.4179,-0.418,-0.418,-0.4174,-0.4174,-0.4174,0,-0.4406,-0.4384,-0.4363,-0.435,-0.4339,-0.4318,-0.4308,-0.4294,-0.4267,-0.426,-0.4255,-0.4222,-0.4206,-0.4189,-0.419,-0.4182,-0.4179,-0.4176,-0.4179,-0.418,-0.418,-0.4181,-0.4182,-0.4175,-0.4175,-0.4174,-0.4174,0,-0.4401,-0.4387,-0.4382,-0.4356,-0.4344,-0.4333,-0.4311,-0.4301,-0.4289,-0.4273,-0.4258,-0.4238,-0.4218,-0.4213,-0.4201,-0.4195,-0.4193,-0.4184,-0.4175,-0.4183,-0.4183,-0.4183,-0.4176,-0.4176,-0.4176,-0.4175,0,0,-0.4423,-0.4386,-0.4384,-0.4372,-0.4345,-0.4334,-0.4323,-0.4303,-0.4295,-0.4277,-0.4267,-0.4246,-0.4238,-0.4225,-0.4211,-0.4206,-0.421,-0.4198,-0.4197,-0.4201,-0.4203,-0.4209,-0.421,-0.4202,-0.4202,-0.4202,-0.4204,0,-0.4427,-0.4404,-0.4385,-0.437,-0.4356,-0.4336,-0.4326,-0.4309,-0.4295,-0.4282,-0.4266,-0.4251,-0.4241,-0.4234,-0.4228,-0.4211,-0.421,-0.421,-0.4192,-0.4192,-0.4198,-0.421,-0.4216,-0.422,-0.4204,-0.4204,-0.4204,0,-0.4427,-0.441,-0.4394,-0.4368,-0.4362,-0.4353,-0.4334,-0.4321,-0.4302,-0.4292,-0.4278,-0.4264,-0.4251,-0.4244,-0.4226,-0.4227,-0.4218,-0.4209,-0.4209,-0.4206,-0.4198,-0.4207,-0.422,-0.4221,-0.4204,-0.4204,-0.4204,0,-0.4445,-0.4418,-0.4404,-0.4395,-0.4365,-0.4359,-0.4346,-0.4326,-0.4316,-0.4299,-0.4292,-0.4274,-0.4265,-0.4251,-0.4233,-0.4229,-0.4217,-0.4208,-0.4208,-0.4209,-0.4206,-0.4206,-0.4218,-0.4201,-0.4201,-0.4201,-0.4201,0,-0.445,-0.4441,-0.4411,-0.4403,-0.4392,-0.4371,-0.436,-0.4346,-0.4329,-0.4318,-0.43,-0.429,-0.4266,-0.4253,-0.4239,-0.4226,-0.4222,-0.4214,-0.421,-0.4215,-0.4216,-0.4209,-0.4208,-0.4202,-0.4202,-0.4201,-0.4201,0,-0.4468,-0.4447,-0.4431,-0.4404,-0.4397,-0.4391,-0.4368,-0.4359,-0.4344,-0.433,-0.4326,-0.4302,-0.4286,-0.4267,-0.4245,-0.4235,-0.4224,-0.4218,-0.423,-0.4228,-0.4229,-0.4229,-0.4236,-0.4236,-0.422,-0.422,-0.422,0,-0.4472,-0.4464,-0.4437,-0.4428,-0.4416,-0.4402,-0.4391,-0.437,-0.4359,-0.4336,-0.4331,-0.4314,-0.4299,-0.4275,-0.4256,-0.4239,-0.4232,-0.4236,-0.423,-0.4235,-0.4232,-0.4233,-0.4232,-0.4237,-0.4238,-0.4238,-0.4238,0,-0.4483,-0.4473,-0.4458,-0.4439,-0.4427,-0.4412,-0.4395,-0.4389,-0.4365,-0.4354,-0.4338,-0.4326,-0.4304,-0.4287,-0.4268,-0.4255,-0.4243,-0.424,-0.4239,-0.4244,-0.4252,-0.4247,-0.4234,-0.424,-0.424,-0.424,-0.424,-0.424,-0.4494,-0.4486,-0.4465,-0.4449,-0.4434,-0.442,-0.441,-0.4394,-0.438,-0.436,-0.4349,-0.4333,-0.4313,-0.4286,-0.4274,-0.4262,-0.4257,-0.4256,-0.4255,-0.4255,-0.4257,-0.4254,-0.4258,-0.4258,-0.4258,-0.4258,-0.4258,0,-0.4503,-0.4489,-0.4474,-0.4452,-0.4439,-0.4428,-0.441,-0.44,-0.4386,-0.437,-0.4355,-0.4337,-0.4321,-0.4301,-0.4283,-0.4277,-0.4271,-0.4273,-0.4273,-0.427,-0.4262,-0.4265,-0.4278,-0.4278,-0.4278,-0.4278,-0.4278,-0.4278,-0.4506,-0.4493,-0.4481,-0.446,-0.4446,-0.443,-0.442,-0.4407,-0.4393,-0.4373,-0.4359,-0.4346,-0.4328,-0.431,-0.4295,-0.4289,-0.4283,-0.4287,-0.428,-0.4273,-0.4271,-0.4269,-0.4271,-0.4287,-0.4287,-0.429,-0.429,-0.429]},{"header":{"parameterUnit":"m.s-1","parameterCategory":1,"la1":30.2991,"la2":30.254,"lo1":-89.0895,"lo2":-89.0444,"dy":0.0017,"dx":0.0017,"nx":28,"ny":28,"refTime":"2023-09-16T03:00:00:Z","depth":0,"parameterNumber":3,"parameterNumberName":"V-component_of_WINDS"},"data":[0,0,0,0,0,0,0,0,0,0,0,0,0,0,0,0,0,0,0,0,0,0,0,0,0,0,0,0,0,0,0,0,0,0,0,0,0,0,0,0,0,0,0,0,0,0,0,0,0,0,0,0,0,0,0,0,0,0,3.4375,3.4375,0,3.4373,3.4373,3.4373,3.4403,3.4404,3.4405,3.4405,3.4397,3.4396,3.4395,0,0,0,0,0,0,0,0,0,0,0,0,0,3.4401,3.4401,3.4375,3.4375,3.4375,3.4373,3.4373,3.4373,3.4403,3.4404,3.4405,3.4406,3.4398,3.4396,3.4395,0,0,0,0,0,0,0,0,0,0,0,0,0,3.4393,3.44,3.4375,3.439,3.4391,3.4373,3.4373,3.4373,3.4402,3.4404,3.4405,3.4406,3.4398,3.4397,3.4395,3.4361,0,0,3.4391,3.439,0,0,0,0,0,0,0,0,3.4394,3.4392,3.4388,3.4389,3.439,3.439,3.4379,3.4369,3.4402,3.4398,3.4405,3.4407,3.4393,3.4392,3.4389,3.436,3.436,3.439,3.4389,3.4389,3.4388,0,0,0,0,0,0,0,3.4394,3.4393,3.4374,3.4388,3.4389,3.4395,3.4396,3.4377,3.4388,3.4399,3.4401,3.44,3.4394,3.439,3.4389,3.436,3.439,3.4389,3.4388,3.4388,3.4302,3.4301,0,0,0,0,0,0,3.4394,3.4393,3.4374,3.4374,3.4395,3.4394,3.4394,3.4388,3.4389,3.439,3.4399,3.4402,3.4392,3.4391,3.4389,3.4348,3.4389,3.4387,3.4387,3.4304,3.4302,3.4301,0,0,0,0,0,0,3.4394,3.4392,3.4374,3.4384,3.4382,3.4392,3.4385,3.4388,3.4384,3.4389,3.4391,3.4393,3.4393,3.4391,3.4368,3.4348,3.4387,3.4385,3.4305,3.4303,3.4301,3.4267,0,0,0,0,0,0,3.4395,3.4392,3.438,3.4384,3.4382,3.4355,3.4384,3.4387,3.4382,3.4385,3.4384,3.4385,3.4394,3.437,3.4366,3.4347,3.4384,3.4307,3.4305,3.4302,3.427,3.4264,3.4259,0,0,0,0,0,3.4395,3.4369,3.4379,3.4376,3.4367,3.4354,3.4352,3.4364,3.438,3.4368,3.4371,3.4385,3.4351,3.4367,3.4363,3.4343,3.4308,3.4305,3.4302,3.4272,3.4265,3.4259,0,0,0,0,0,0,3.436,3.437,3.4381,3.4355,3.4354,3.4359,3.4343,3.4356,3.4349,3.4352,3.4365,3.4365,3.4339,3.4339,3.4357,3.431,3.4332,3.4328,3.4311,3.4304,3.4299,3.4299,3.4383,0,0,0,0,0,3.435,3.434,3.4348,3.4324,3.4323,3.4333,3.4328,3.4337,3.4335,3.4334,3.4336,3.4332,3.4321,3.4312,3.4302,3.427,3.427,3.4255,3.4249,3.4245,3.4241,3.4223,3.4216,3.4291,3.4291,3.4291,0,0,3.4328,3.4332,3.4324,3.4317,3.4317,3.4305,3.4332,3.4318,3.4308,3.4331,3.431,3.4311,3.4308,3.428,3.4268,3.4279,3.422,3.4241,3.4237,3.4235,3.4219,3.4212,3.4206,3.4289,3.4289,3.4289,0,0,3.4281,3.4283,3.4264,3.4263,3.4264,3.4271,3.4266,3.4269,3.4272,3.4251,3.4268,3.4256,3.4236,3.4233,3.4228,3.4181,3.4193,3.4177,3.4148,3.4131,3.4125,3.412,3.4102,3.4095,3.4173,3.4173,3.4173,0,3.4252,3.4236,3.4252,3.4236,3.4232,3.4255,3.4235,3.4233,3.4229,3.4225,3.4238,3.4214,3.4213,3.4185,3.4173,3.4169,3.4163,3.4177,3.4125,3.412,3.4115,3.4098,3.4091,3.4171,3.4171,3.4172,3.4172,0,3.4201,3.4189,3.4173,3.417,3.4165,3.4147,3.4158,3.4151,3.4161,3.4166,3.4144,3.4144,3.4134,3.4129,3.4137,3.4101,3.4108,3.4123,3.4146,3.4106,3.409,3.4084,3.4168,3.4169,3.417,3.417,0,0,3.413,3.4138,3.4131,3.4131,3.4133,3.4123,3.4106,3.4098,3.409,3.4087,3.4072,3.4055,3.4069,3.4064,3.4073,3.4058,3.4019,3.4074,3.4075,3.4063,3.3978,3.3966,3.3958,3.4028,3.4027,3.4026,3.3978,0,3.4084,3.4057,3.407,3.404,3.4029,3.4051,3.4035,3.4034,3.4039,3.4028,3.4033,3.402,3.404,3.4037,3.4024,3.4027,3.4002,3.4031,3.4012,3.4011,3.4012,3.395,3.3938,3.3892,3.3972,3.3971,3.397,0,3.4026,3.4022,3.3991,3.3996,3.3992,3.3978,3.3972,3.3962,3.3961,3.3965,3.396,3.3973,3.3954,3.3978,3.3952,3.3971,3.3965,3.3965,3.3964,3.3961,3.3988,3.3945,3.3878,3.3871,3.3961,3.3962,3.3962,0,3.3977,3.3964,3.3944,3.3942,3.3947,3.3937,3.3938,3.3938,3.3933,3.3927,3.3923,3.3914,3.3909,3.3901,3.3911,3.3927,3.3883,3.3908,3.3884,3.3884,3.3873,3.3873,3.3803,3.3871,3.3871,3.3871,3.3871,0,3.3923,3.3903,3.3922,3.3909,3.3887,3.3903,3.388,3.3884,3.3884,3.3871,3.3889,3.3876,3.389,3.3878,3.3885,3.3862,3.3859,3.3861,3.3863,3.3859,3.3859,3.3854,3.3857,3.3869,3.3869,3.387,3.387,0,3.3864,3.3876,3.3855,3.3862,3.3863,3.3847,3.3852,3.3839,3.3846,3.383,3.3827,3.3836,3.3823,3.3832,3.3818,3.3823,3.3793,3.3799,3.3793,3.3795,3.3771,3.3773,3.3694,3.3684,3.3759,3.3758,3.3758,0,3.3828,3.3814,3.3819,3.3813,3.3814,3.3803,3.3798,3.3813,3.3806,3.3804,3.3792,3.3781,3.3773,3.3751,3.3755,3.3745,3.3751,3.3724,3.3749,3.3746,3.3749,3.375,3.3748,3.3718,3.3718,3.3717,3.3716,0,3.3763,3.377,3.3763,3.3758,3.3752,3.3748,3.3745,3.3738,3.3753,3.3745,3.3733,3.3727,3.3714,3.3703,3.3694,3.3694,3.3706,3.3709,3.3703,3.3698,3.3695,3.3695,3.3778,3.371,3.3711,3.3711,3.3711,3.3712,3.3714,3.3703,3.3705,3.3696,3.3696,3.3693,3.3683,3.3688,3.3679,3.3671,3.368,3.3665,3.3663,3.3654,3.3652,3.3639,3.365,3.3641,3.3639,3.3636,3.3633,3.3698,3.3638,3.3638,3.3638,3.3638,3.3638,0,3.365,3.3653,3.3645,3.3642,3.3634,3.365,3.3648,3.364,3.3628,3.3626,3.3618,3.3604,3.3593,3.3597,3.3587,3.3576,3.3582,3.3573,3.3573,3.3572,3.3624,3.363,3.3568,3.3568,3.3568,3.3568,3.3568,3.3568,3.3616,3.3596,3.3603,3.3584,3.3586,3.3573,3.3571,3.3568,3.3567,3.3551,3.3542,3.3546,3.3546,3.3536,3.3526,3.3527,3.3522,3.3511,3.3514,3.3562,3.3569,3.3575,3.3581,3.351,3.351,3.3463,3.3463,3.3462]}]]